This is the latest recevied weather packets stored in our database for station/object KG5MMT-12. If no packets are shown the sender has not sent any weather packets the latest 10 day(s).
| Time | Temp. | Humidity | Pressure | Rain* | Wind** | Luminosity | Snow |
|---|---|---|---|---|---|---|---|
| 1777772336 | 9.44° C | 57% | 0 hPa | 0 mm | - | - | - |
| 1777772036 | 9.44° C | 56% | 0 hPa | 0 mm | - | - | - |
| 1777771736 | 10° C | 55% | 0 hPa | 0 mm | - | - | - |
| 1777771436 | 10° C | 55% | 0 hPa | 0 mm | - | - | - |
| 1777771136 | 10.56° C | 54% | 0 hPa | 0 mm | - | - | - |
| 1777770836 | 10.56° C | 52% | 0 hPa | 0 mm | - | - | - |
| 1777770536 | 11.11° C | 53% | 0 hPa | 0 mm | - | - | - |
| 1777770236 | 11.67° C | 50% | 0 hPa | 0 mm | - | - | - |
| 1777769936 | 11.67° C | 48% | 0 hPa | 0 mm | - | - | - |
| 1777769636 | 12.22° C | 47% | 0 hPa | 0 mm | - | - | - |
| 1777769336 | 12.22° C | 46% | 0 hPa | 0 mm | - | - | - |
| 1777769036 | 12.78° C | 44% | 0 hPa | 0 mm | - | - | - |
| 1777768736 | 12.78° C | 44% | 0 hPa | 0 mm | - | - | - |
| 1777768730 | 13.89° C | 38% | 0 hPa | 0 mm | - | - | - |
| 1777768719 | 13.89° C | 36% | 0 hPa | 0 mm | - | - | - |
| 1777768436 | 12.78° C | 38% | 0 hPa | 0 mm | - | - | - |
| 1777768136 | 13.33° C | 36% | 0 hPa | 0 mm | - | - | - |
| 1777767836 | 13.33° C | 37% | 0 hPa | 0 mm | - | - | - |
| 1777767536 | 13.33° C | 36% | 0 hPa | 0 mm | - | - | - |
| 1777767236 | 13.33° C | 36% | 0 hPa | 0 mm | - | - | - |
| 1777766936 | 13.89° C | 38% | 0 hPa | 0 mm | - | - | - |
| 1777766636 | 13.89° C | 36% | 0 hPa | 0 mm | - | - | - |
| 1777766336 | 13.89° C | 33% | 0 hPa | 0 mm | - | - | - |
| 1777766036 | 14.44° C | 31% | 0 hPa | 0 mm | - | - | - |
| 1777765736 | 14.44° C | 31% | 0 hPa | 0 mm | - | - | - |
* Rain latest hour (hover to see other rain measurements)
** Current wind speed in m/s (hover to see current wind gust speed)